Simultaneous Nadir Overpasses (SNOs) Predictions

Prediction of SNOs between FY3D and TERRA Satellite Orbit:

Table of predicted SNOs for the next 14.0 days since TLE Epoch: 10/31/2020
Index Date (FY3D) Time (FY3D) Lat,Lon (FY3D) SZA (FY3D ) Date (TERRA) Time (TERRA) Lat,Lon (TERRA) SZA (TERRA ) Distance(km) Time Diff (sec)
1 11/01/2020 16:50:13 -69.07, 106.90 96.28 11/01/2020 16:50:48 -69.06, 106.86 96.29 2.20 35
2 11/01/2020 17:40:56 68.93, -85.59 83.61 11/01/2020 17:40:15 68.95, -85.63 83.62 2.36 41
3 11/04/2020 09:06:36 -69.12,-137.24 95.40 11/04/2020 09:07:16 -69.12,-137.18 95.39 2.31 40
4 11/04/2020 09:57:19 68.99, 30.25 84.49 11/04/2020 09:56:43 69.01, 30.32 84.51 3.24 36
5 11/07/2020 01:22:58 -69.12, -21.32 94.60 11/07/2020 01:23:45 -69.12, -21.31 94.59 0.40 47
6 11/07/2020 02:13:41 68.99, 146.17 85.30 11/07/2020 02:13:12 69.00, 146.19 85.30 1.27 29
7 11/07/2020 03:04:05 -67.94, -45.14 95.72 11/07/2020 03:02:58 -68.01, -47.39 95.71 94.42 67
8 11/09/2020 17:39:19 -69.12, 94.60 93.83 11/09/2020 17:40:13 -69.11, 94.56 93.84 1.95 54
9 11/09/2020 18:30:02 69.00, -97.92 86.07 11/09/2020 18:29:40 68.99, -97.95 86.06 1.46 22
10 11/09/2020 19:20:31 -68.21, 70.44 94.69 11/09/2020 19:19:22 -68.22, 68.74 94.72 70.40 69
11 11/12/2020 09:55:42 -69.17,-149.56 93.04 11/12/2020 09:56:41 -69.15,-149.51 93.06 3.24 59
12 11/12/2020 10:46:24 69.01, 17.99 86.81 11/12/2020 10:46:08 69.03, 17.98 86.83 2.46 16
13 11/12/2020 11:36:57 -68.43,-173.92 93.75 11/12/2020 11:35:46 -68.49,-175.06 93.72 47.43 71
